Temp
-14 -14 -15 -15 -15 -15 -15 -15 -15 -15 -15 -15 -15 -15 -15 -15 -15 -15 -14 -14 -14 -14 -14 -14 -14 -13 -13 -13 -13 -13 -13 -13
-16 -15 -15 -15 -15 -15 -15 -15 -15 -15 -15 -15 -15 -16 -16 -16 -15 -15 -15 -15 -14 -14 -14 -14 -14 -14 -14 -14 -14 -14 -14 -13
-16 -16 -16 -15 -15 -15 -15 -15 -15 -16 -16 -16 -16 -16 -16 -16 -16 -16 -16 -16 -15 -15 -15 -15 -14 -14 -14 -14 -14 -14 -14 -14
-16 -16 -16 -16 -15 -15 -15 -16 -15 -15 -16 -16 -16 -16 -16 -16 -16 -16 -16 -16 -16 -16 -16 -15 -15 -15 -15 -15 -15 -15 -15 -14
-17 -17 -17 -16 -16 -16 -16 -16 -16 -16 -16 -16 -16 -16 -17 -17 -16 -16 -16 -16 -16 -16 -16 -16 -16 -16 -15 -15 -15 -15 -15 -15
-17 -17 -18 -17 -17 -17 -17 -17 -17 -17 -17 -17 -17 -17 -17 -17 -17 -17 -17 -17 -17 -17 -17 -17 -17 -16 -16 -16 -16 -15 -15 -15
-17 -18 -18 -17 -16 -17 -17 -17 -17 -17 -17 -17 -17 -17 -17 -18 -18 -18 -18 -18 -18 -18 -18 -18 -17 -17 -16 -16 -16 -16 -16 -16
-18 -18 -18 -18 -17 -17 -18 -18 -18 -18 -17 -17 -17 -17 -17 -18 -18 -18 -18 -18 -18 -18 -18 -18 -18 -18 -18 -18 -17 -17 -17 -17
-18 -18 -18 -18 -18 -18 -18 -18 -18 -18 -18 -18 -18 -18 -18 -18 -18 -18 -18 -18 -18 -18 -18 -18 -18 -18 -18 -18 -18 -18 -18 -17
-18 -18 -18 -18 -19 -18 -18 -19 -18 -18 -18 -18 -18 -18 -18 -18 -18 -18 -18 -18 -18 -18 -18 -18 -18 -18 -18 -18 -18 -18 -18 -18
-18 -18 -18 -18 -18 -19 -18 -19 -18 -18 -18 -18 -18 -18 -18 -18 -18 -18 -18 -18 -18 -18 -19 -19 -19 -19 -19 -18 -18 -18 -18 -18
-18 -18 -18 -19 -19 -19 -19 -18 -18 -18 -18 -18 -18 -18 -18 -18 -19 -19 -19 -19 -18 -18 -19 -19 -19 -19 -19 -18 -19 -19 -18 -18
-18 -18 -19 -19 -19 -19 -19 -18 -18 -18 -18 -18 -18 -18 -19 -19 -18 -18 -19 -19 -19 -19 -19 -19 -19 -19 -19 -19 -19 -20 -19 -18
-19 -19 -19 -19 -19 -20 -20 -19 -19 -19 -19 -19 -19 -19 -19 -19 -19 -19 -18 -18 -19 -19 -20 -20 -19 -19 -19 -19 -18 -19 -19 -19
-19 -19 -19 -19 -19 -18 -18 -18 -18 -19 -19 -19 -19 -19 -19 -18 -18 -18 -19 -19 -19 -19 -19 -20 -20 -20 -19 -19 -18 -18 -19 -19
-19 -19 -19 -19 -19 -18 -18 -18 -18 -19 -19 -19 -19 -19 -19 -19 -19 -19 -19 -19 -19 -19 -19 -19 -20 -20 -20 -20 -19 -18 -19 -19
-19 -19 -19 -19 -18 -18 -18 -19 -19 -19 -19 -19 -19 -19 -19 -19 -20 -20 -20 -20 -20 -20 -20 -20 -20 -20 -20 -20 -19 -19 -19 -19
-19 -19 -19 -18 -18 -18 -19 -19 -19 -19 -19 -19 -19 -19 -20 -20 -20 -20 -20 -20 -20 -21 -21 -21 -21 -21 -21 -20 -19 -19 -19 -19
-19 -19 -19 -19 -19 -18 -19 -19 -19 -19 -19 -19 -20 -20 -20 -20 -20 -20 -20 -20 -20 -20 -20 -21 -21 -22 -22 -21 -20 -20 -20 -19
-19 -19 -18 -18 -18 -18 -18 -19 -19 -19 -19 -20 -20 -19 -20 -20 -20 -20 -21 -21 -21 -21 -21 -21 -21 -22 -22 -22 -21 -21 -20 -20
Height
5811 5809 5807 5805 5803 5802 5801 5800 5799 5798 5797 5797 5796 5795 5794 5793 5792 5792 5792 5792 5792 5793 5795 5796 5797 5797 5798 5799 5799 5801 5802 5804
5804 5803 5800 5798 5795 5793 5792 5791 5790 5789 5789 5788 5788 5787 5787 5786 5785 5785 5785 5784 5785 5785 5787 5788 5790 5790 5790 5791 5792 5793 5794 5796
5797 5794 5792 5790 5787 5785 5783 5781 5780 5780 5779 5779 5779 5778 5778 5778 5778 5777 5777 5777 5777 5777 5778 5779 5780 5782 5783 5784 5785 5785 5786 5788
5789 5786 5783 5781 5778 5776 5774 5772 5771 5770 5769 5769 5769 5769 5769 5769 5769 5769 5769 5769 5768 5768 5769 5770 5771 5772 5774 5776 5777 5778 5779 5780
5780 5777 5774 5770 5768 5765 5763 5762 5761 5760 5760 5759 5759 5759 5759 5759 5760 5759 5759 5759 5759 5759 5759 5760 5762 5762 5763 5765 5767 5769 5770 5772
5772 5769 5766 5761 5757 5754 5752 5751 5752 5751 5751 5751 5751 5750 5750 5749 5749 5749 5748 5748 5749 5749 5749 5750 5750 5752 5753 5754 5756 5757 5760 5761
5764 5760 5758 5753 5750 5745 5742 5743 5744 5743 5743 5743 5742 5740 5740 5739 5739 5738 5738 5737 5737 5737 5737 5738 5739 5739 5741 5742 5744 5746 5747 5750
5754 5751 5749 5747 5744 5739 5735 5734 5736 5735 5733 5733 5732 5731 5730 5728 5728 5727 5727 5727 5727 5726 5726 5726 5726 5727 5728 5729 5731 5732 5734 5736
5745 5742 5740 5738 5736 5733 5730 5728 5727 5726 5725 5724 5723 5722 5720 5719 5718 5717 5716 5716 5716 5715 5715 5715 5715 5717 5717 5719 5719 5721 5721 5723
5740 5736 5733 5731 5726 5724 5722 5721 5719 5717 5715 5714 5713 5712 5710 5708 5707 5706 5705 5704 5704 5703 5703 5703 5704 5706 5707 5708 5709 5711 5712 5714
5733 5729 5725 5723 5720 5718 5714 5712 5710 5708 5706 5704 5703 5701 5699 5697 5695 5694 5693 5691 5689 5689 5690 5691 5691 5692 5694 5696 5698 5700 5702 5703
5725 5721 5716 5713 5710 5708 5705 5703 5701 5699 5696 5693 5690 5687 5685 5682 5680 5678 5676 5676 5676 5676 5675 5675 5676 5678 5679 5681 5684 5687 5690 5693
5719 5714 5710 5705 5701 5698 5695 5692 5690 5687 5684 5681 5677 5674 5671 5668 5665 5663 5662 5661 5661 5660 5660 5660 5661 5663 5664 5667 5669 5672 5675 5680
5713 5708 5703 5699 5695 5691 5687 5683 5681 5677 5674 5670 5667 5663 5659 5656 5653 5650 5648 5647 5647 5647 5646 5645 5647 5647 5649 5651 5652 5659 5662 5668
5709 5703 5698 5693 5688 5683 5679 5676 5673 5670 5666 5662 5657 5652 5648 5644 5640 5638 5636 5634 5633 5633 5633 5633 5633 5633 5634 5637 5639 5645 5650 5653
5703 5697 5691 5686 5680 5676 5672 5668 5664 5660 5655 5650 5645 5638 5634 5629 5625 5622 5620 5618 5617 5618 5617 5617 5618 5619 5619 5621 5623 5629 5635 5639
5698 5691 5685 5679 5674 5669 5665 5660 5655 5650 5644 5637 5630 5623 5617 5611 5606 5603 5600 5598 5597 5598 5599 5599 5601 5603 5604 5605 5609 5612 5619 5623
5691 5685 5679 5673 5668 5663 5657 5652 5646 5638 5630 5622 5615 5607 5600 5593 5588 5584 5580 5577 5576 5577 5578 5580 5582 5584 5587 5589 5593 5598 5603 5609
5687 5680 5674 5668 5662 5655 5648 5641 5633 5624 5615 5605 5596 5588 5580 5574 5568 5563 5559 5557 5556 5557 5558 5560 5562 5565 5568 5572 5577 5582 5588 5594
5683 5675 5668 5662 5655 5648 5639 5629 5619 5608 5598 5588 5578 5568 5560 5552 5545 5539 5535 5532 5531 5532 5534 5538 5542 5546 5550 5555 5560 5567 5574 5581
Wind_Speed
38 37 36 37 37 37 37 38 39 39 40 39 40 40 41 41 40 40 41 42 41 38 36 35 35 35 34 33 33 32 32 33
27 28 31 34 36 38 38 37 38 39 39 39 40 40 40 41 41 41 42 42 42 41 40 38 36 36 36 36 35 35 34 33
31 33 34 37 39 41 42 41 40 39 38 39 39 40 40 40 41 42 42 43 43 42 42 41 39 37 37 38 38 36 36 36
40 40 38 38 40 42 44 44 44 43 41 39 38 38 39 39 40 42 43 44 44 44 43 41 40 39 37 36 38 37 38 39
39 36 39 42 41 39 41 44 44 42 42 42 41 41 41 41 42 43 44 44 44 44 43 43 43 44 44 43 43 43 43 44
40 37 36 34 31 36 38 38 36 34 35 36 38 40 41 41 42 43 44 45 45 45 46 46 46 47 46 46 46 45 44 45
35 35 33 29 33 35 27 29 31 32 32 34 33 36 37 39 40 41 43 44 45 46 48 49 49 50 49 49 49 48 48 46
35 35 29 27 27 31 40 24 30 32 30 30 32 34 35 36 37 39 41 43 45 46 47 46 46 47 44 45 47 47 49 48
33 33 27 28 30 35 37 33 30 31 32 33 37 38 38 37 39 40 41 43 45 46 46 45 43 42 40 39 38 40 45 47
30 28 29 31 31 34 34 28 31 37 38 39 38 39 41 44 45 47 48 50 51 50 50 49 47 45 44 42 42 40 38 39
36 36 36 35 33 30 37 39 38 37 38 39 41 43 46 49 52 53 53 54 55 53 56 54 53 53 51 49 47 46 43 40
41 41 37 35 36 37 40 38 38 39 40 42 45 47 48 48 48 47 47 48 51 53 52 55 60 59 58 56 54 52 49 46
36 34 32 32 33 32 31 35 38 40 42 43 43 44 44 46 46 47 47 49 49 53 55 56 54 56 60 58 56 52 53 49
30 32 33 32 31 30 30 30 33 36 38 40 42 44 45 46 46 45 46 46 46 47 45 48 55 58 55 55 54 48 50 51
31 33 34 32 31 31 30 30 31 32 34 39 43 46 48 49 49 49 50 51 52 50 50 49 44 49 57 60 59 55 51 50
34 36 33 32 32 31 30 31 33 36 41 46 49 52 52 53 54 53 53 53 54 53 52 52 52 53 55 56 58 61 57 54
35 35 35 34 33 32 33 33 37 39 43 50 52 53 53 53 54 55 56 56 56 55 55 55 55 55 54 56 54 54 55 60
37 35 35 31 29 33 35 38 44 48 53 55 55 54 56 57 58 59 60 58 56 55 55 55 55 58 58 58 55 52 51 52
35 34 34 34 36 40 41 43 48 52 54 56 58 59 59 59 58 59 59 58 58 57 56 54 55 56 57 60 58 55 51 49
35 33 33 35 36 40 46 51 55 57 59 61 59 58 59 62 64 66 68 67 66 65 61 59 57 53 52 52 57 59 55 52
Wind_Direction
289 288 289 287 285 280 276 273 272 269 268 269 271 272 272 272 273 274 274 276 276 274 272 268 267 266 263 261 259 257 253 249
283 284 284 284 284 281 278 275 273 272 270 269 269 269 270 272 274 274 276 276 277 277 275 270 265 264 263 261 259 258 258 254
291 291 292 288 285 281 277 275 273 271 269 268 268 268 268 269 270 271 272 273 274 275 275 274 270 265 261 258 255 255 255 256
292 293 293 290 285 281 277 273 270 270 270 269 268 267 269 270 271 272 272 272 272 272 272 271 269 267 262 255 252 252 255 253
296 295 297 294 287 279 275 272 269 267 266 266 267 268 268 269 270 269 269 269 270 271 271 270 270 268 265 263 258 254 255 255
293 292 299 300 284 285 281 273 271 269 270 269 269 270 269 268 268 267 268 268 269 269 268 268 266 265 265 264 261 260 256 255
300 295 299 298 297 262 269 275 279 276 273 274 273 271 270 269 268 268 266 265 265 266 267 266 265 264 263 263 263 262 259 256
303 294 293 291 276 271 303 283 277 279 278 278 279 273 268 266 267 267 268 269 268 267 266 266 266 265 265 265 262 261 258 255
304 292 288 293 296 285 287 280 272 274 276 274 278 273 269 269 272 272 271 270 269 267 264 264 263 263 263 263 260 260 256 251
315 305 298 302 298 299 280 271 275 280 278 274 272 270 267 269 272 274 274 274 273 271 268 266 265 263 262 260 259 262 264 254
312 311 307 302 298 285 269 288 289 280 279 279 278 277 276 274 275 274 274 273 273 271 268 266 266 266 263 261 260 260 260 259
309 309 306 299 293 288 285 284 286 286 285 285 283 282 281 282 281 279 275 272 269 270 269 265 262 262 264 264 263 260 256 253
305 309 312 305 296 295 284 282 285 288 288 287 286 284 282 281 280 278 277 274 271 270 269 268 267 265 262 263 261 256 254 252
318 317 316 315 312 307 303 297 293 293 293 292 291 289 288 284 281 280 278 275 273 274 271 266 262 263 263 259 256 255 250 250
318 317 314 310 310 307 302 298 294 292 293 295 294 292 289 286 283 280 277 275 274 271 269 266 258 260 258 256 257 256 253 247
317 314 314 315 312 312 307 304 300 298 297 296 295 291 288 284 282 279 278 276 274 270 267 264 262 262 259 258 253 252 250 249
318 318 316 312 311 310 306 301 298 298 300 301 300 296 290 286 281 278 276 274 270 266 262 260 258 256 257 256 256 253 247 246
320 317 312 310 309 309 308 304 304 302 301 298 297 294 291 286 282 279 277 274 270 267 264 259 256 253 251 252 251 251 250 246
321 314 310 306 307 311 313 311 309 308 306 302 300 298 294 288 282 279 276 273 270 267 264 261 254 249 248 248 247 246 245 245
328 320 317 319 317 315 313 315 312 310 307 306 302 300 295 290 287 282 278 274 270 266 262 258 254 247 243 242 243 240 241 242